Location: La Comballaz
(46.3780°N, 7.0817°E)
Time: 05:15:54
(UTC+00:00)

N. Korean satellite - Pass Details

Date: 14 December 2021
Orbit: 447 x 491 km, 97.3° (Epoch: 25 January)

Event Time Altitude Azimuth Distance (km) Brightness Sun altitude
Rises 04:43:15 0° 14° (NNE) 2,461 10.2 -23.8°
Enters shadow 04:44:12 - 15° (NNE) 2,059 9.8 -23.7°
Exits shadow 04:50:48 21° 181° (S) 1,068 8.3 -22.5°
Drops below altitude 10° 04:52:03 10° 185° (S) 1,584 9.2 -22.3°
Sets 04:54:06 0° 188° (S) 2,458 10.2 -22.0°
